• în România
  • Lista ţărilor
  • Pe 7 zile
  • Temperatura apei
  • Hartă satelitară
  • Meteo pe hartă
  • Widget-uri
  • user-avatar
    Intrare

    Meteo pe oră la Ganja

    Astăzi, 23 Septembrie, Sâmbătă

    Timp Temperatura Precipitaţii Vânt Presiune Umiditate
    00:00 +24°C° 0 mm 1 m/s 725 mmHg 54%
    01:00 +24°C° 0 mm 1 m/s 725 mmHg 56%
    02:00 +23°C° 0 mm 1 m/s 725 mmHg 57%
    03:00 +23°C° 0 mm 1 m/s 725 mmHg 58%
    04:00 +23°C° 0 mm 1 m/s 725 mmHg 59%
    05:00 +22°C° 0 mm 1 m/s 726 mmHg 60%
    06:00 +22°C° 0 mm 1 m/s 726 mmHg 61%
    07:00 +24°C° 0 mm 1 m/s 726 mmHg 56%
    08:00 +26°C° 0 mm 1 m/s 726 mmHg 51%
    09:00 +27°C° 0 mm 2 m/s 726 mmHg 46%
    10:00 +29°C° 0 mm 2 m/s 726 mmHg 44%
    11:00 +30°C° 0 mm 3 m/s 726 mmHg 42%
    12:00 +32°C° 0 mm 4 m/s 726 mmHg 40%
    13:00 +32°C° 0 mm 5 m/s 726 mmHg 38%
    14:00 +33°C° 0 mm 5 m/s 726 mmHg 37%
    15:00 +33°C° 0 mm 5 m/s 726 mmHg 36%
    16:00 +32°C° 0,1 mm 5 m/s 726 mmHg 39%
    17:00 +29°C° 0,1 mm 4 m/s 726 mmHg 43%
    18:00 +28°C° 0,1 mm 4 m/s 726 mmHg 46%
    19:00 +27°C° 0 mm 4 m/s 726 mmHg 48%
    20:00 +26°C° 0 mm 4 m/s 726 mmHg 49%
    21:00 +25°C° 0 mm 4 m/s 727 mmHg 51%
    22:00 +25°C° 0 mm 3 m/s 727 mmHg 53%
    23:00 +24°C° 0 mm 3 m/s 727 mmHg 55%

    Mâine, 24 Septembrie, Duminică

    Timp Temperatura Precipitaţii Vânt Presiune Umiditate
    00:00 +23°C° 0 mm 2 m/s 727 mmHg 57%
    01:00 +23°C° 0 mm 2 m/s 727 mmHg 58%
    02:00 +22°C° 0 mm 1 m/s 727 mmHg 60%
    03:00 +22°C° 0 mm 1 m/s 727 mmHg 62%
    04:00 +21°C° 0 mm 1 m/s 727 mmHg 62%
    05:00 +21°C° 0 mm 1 m/s 728 mmHg 62%
    06:00 +21°C° 0 mm 1 m/s 728 mmHg 63%
    07:00 +22°C° 0 mm 1 m/s 728 mmHg 57%
    08:00 +24°C° 0 mm 1 m/s 728 mmHg 52%
    09:00 +26°C° 0 mm 2 m/s 728 mmHg 46%
    10:00 +27°C° 0 mm 2 m/s 728 mmHg 43%
    11:00 +28°C° 0 mm 2 m/s 728 mmHg 40%
    12:00 +29°C° 0 mm 3 m/s 728 mmHg 37%
    13:00 +29°C° 0,1 mm 3 m/s 727 mmHg 36%
    14:00 +30°C° 0,1 mm 4 m/s 727 mmHg 35%
    15:00 +30°C° 0,1 mm 4 m/s 727 mmHg 35%
    16:00 +29°C° 0,1 mm 4 m/s 727 mmHg 38%
    17:00 +28°C° 0,1 mm 3 m/s 727 mmHg 42%
    18:00 +26°C° 0,1 mm 3 m/s 727 mmHg 46%
    19:00 +26°C° 0 mm 3 m/s 728 mmHg 48%
    20:00 +25°C° 0 mm 3 m/s 728 mmHg 49%
    21:00 +25°C° 0 mm 3 m/s 729 mmHg 51%
    22:00 +24°C° 0 mm 3 m/s 729 mmHg 54%
    23:00 +22°C° 0 mm 3 m/s 729 mmHg 56%

    Poimâine, 25 Septembrie, Luni

    Timp Temperatura Precipitaţii Vânt Presiune Umiditate
    00:00 +23°C° 0 mm 2 m/s 729 mmHg 59%
    01:00 +21°C° 0 mm 2 m/s 729 mmHg 61%
    02:00 +21°C° 0 mm 1 m/s 729 mmHg 64%
    03:00 +21°C° 0 mm 1 m/s 729 mmHg 67%
    04:00 +20°C° 0 mm 1 m/s 729 mmHg 67%
    05:00 +20°C° 0 mm 1 m/s 729 mmHg 68%
    06:00 +20°C° 0 mm 1 m/s 729 mmHg 69%
    07:00 +21°C° 0 mm 1 m/s 729 mmHg 62%
    08:00 +23°C° 0 mm 1 m/s 729 mmHg 55%
    09:00 +25°C° 0 mm 1 m/s 729 mmHg 48%
    10:00 +26°C° 0 mm 2 m/s 729 mmHg 44%
    11:00 +27°C° 0 mm 2 m/s 728 mmHg 40%
    12:00 +28°C° 0 mm 3 m/s 728 mmHg 36%
    13:00 +29°C° 0,1 mm 3 m/s 728 mmHg 35%
    14:00 +29°C° 0,1 mm 3 m/s 728 mmHg 34%
    15:00 +29°C° 0,1 mm 3 m/s 728 mmHg 33%
    16:00 +28°C° 0,2 mm 3 m/s 728 mmHg 37%
    17:00 +27°C° 0,2 mm 3 m/s 728 mmHg 41%
    18:00 +26°C° 0,2 mm 2 m/s 728 mmHg 45%
    19:00 +25°C° 0 mm 2 m/s 728 mmHg 48%
    20:00 +24°C° 0 mm 3 m/s 729 mmHg 50%
    21:00 +22°C° 0 mm 3 m/s 729 mmHg 53%
    22:00 +22°C° 0 mm 3 m/s 729 mmHg 56%
    23:00 +21°C° 0 mm 3 m/s 729 mmHg 58%

    26 Septembrie, Marţi

    Timp Temperatura Precipitaţii Vânt Presiune Umiditate
    00:00 +21°C° 0 mm 3 m/s 729 mmHg 61%
    01:00 +20°C° 0 mm 2 m/s 729 mmHg 63%
    02:00 +20°C° 0 mm 2 m/s 728 mmHg 66%
    03:00 +20°C° 0 mm 1 m/s 728 mmHg 68%
    04:00 +20°C° 0 mm 1 m/s 728 mmHg 69%
    05:00 +19°C° 0 mm 1 m/s 728 mmHg 71%
    06:00 +19°C° 0 mm 1 m/s 728 mmHg 72%
    07:00 +21°C° 0 mm 1 m/s 728 mmHg 67%
    08:00 +21°C° 0 mm 2 m/s 729 mmHg 62%
    09:00 +24°C° 0 mm 3 m/s 729 mmHg 57%
    10:00 +25°C° 0 mm 3 m/s 728 mmHg 53%
    11:00 +26°C° 0 mm 4 m/s 728 mmHg 49%
    12:00 +27°C° 0 mm 4 m/s 728 mmHg 45%
    13:00 +27°C° 0 mm 4 m/s 728 mmHg 44%
    14:00 +28°C° 0 mm 5 m/s 727 mmHg 42%
    15:00 +28°C° 0 mm 5 m/s 727 mmHg 41%
    16:00 +27°C° 0 mm 5 m/s 727 mmHg 46%
    17:00 +25°C° 0 mm 5 m/s 727 mmHg 51%
    18:00 +23°C° 0 mm 5 m/s 728 mmHg 56%
    19:00 +22°C° 0 mm 5 m/s 728 mmHg 59%
    20:00 +21°C° 0 mm 5 m/s 728 mmHg 63%
    21:00 +20°C° 0 mm 6 m/s 729 mmHg 66%
    22:00 +20°C° 0 mm 5 m/s 729 mmHg 69%
    23:00 +19°C° 0 mm 5 m/s 728 mmHg 71%

    27 Septembrie, Miercuri

    Timp Temperatura Precipitaţii Vânt Presiune Umiditate
    00:00 +19°C° 0 mm 5 m/s 728 mmHg 73%
    01:00 +18°C° 0 mm 4 m/s 728 mmHg 74%
    02:00 +18°C° 0 mm 4 m/s 728 mmHg 76%
    03:00 +18°C° 0 mm 3 m/s 728 mmHg 77%
    04:00 +18°C° 0 mm 3 m/s 728 mmHg 78%
    05:00 +18°C° 0 mm 3 m/s 728 mmHg 79%
    06:00 +18°C° 0 mm 2 m/s 728 mmHg 80%
    07:00 +18°C° 0 mm 3 m/s 728 mmHg 76%
    08:00 +19°C° 0 mm 3 m/s 728 mmHg 73%
    09:00 +20°C° 0 mm 3 m/s 728 mmHg 69%
    10:00 +20°C° 0 mm 3 m/s 728 mmHg 67%
    11:00 +21°C° 0 mm 4 m/s 728 mmHg 65%
    12:00 +21°C° 0 mm 4 m/s 728 mmHg 63%
    13:00 +21°C° 0 mm 4 m/s 727 mmHg 63%
    14:00 +22°C° 0 mm 4 m/s 727 mmHg 63%
    15:00 +22°C° 0 mm 3 m/s 727 mmHg 63%
    16:00 +21°C° 0 mm 3 m/s 727 mmHg 66%
    17:00 +20°C° 0 mm 3 m/s 727 mmHg 69%
    18:00 +19°C° 0 mm 3 m/s 727 mmHg 72%
    19:00 +19°C° 0,1 mm 3 m/s 727 mmHg 74%
    20:00 +19°C° 0,1 mm 3 m/s 727 mmHg 75%
    21:00 +18°C° 0,1 mm 3 m/s 728 mmHg 77%
    22:00 +18°C° 0,1 mm 3 m/s 727 mmHg 78%
    23:00 +18°C° 0,1 mm 3 m/s 727 mmHg 79%

    28 Septembrie, Joi

    Timp Temperatura Precipitaţii Vânt Presiune Umiditate
    00:00 +18°C° 0,1 mm 2 m/s 727 mmHg 80%
    01:00 +18°C° 0 mm 2 m/s 727 mmHg 81%
    02:00 +17°C° 0 mm 2 m/s 727 mmHg 82%
    03:00 +18°C° 0 mm 1 m/s 727 mmHg 82%
    04:00 +18°C° 0 mm 1 m/s 727 mmHg 84%
    05:00 +18°C° 0 mm 1 m/s 727 mmHg 86%
    06:00 +18°C° 0 mm 1 m/s 727 mmHg 87%
    07:00 +17°C° 0,1 mm 2 m/s 727 mmHg 86%
    08:00 +17°C° 0,1 mm 2 m/s 727 mmHg 85%
    09:00 +18°C° 0,1 mm 2 m/s 727 mmHg 85%
    10:00 +18°C° 0 mm 3 m/s 727 mmHg 82%
    11:00 +18°C° 0 mm 3 m/s 727 mmHg 79%
    12:00 +19°C° 0 mm 3 m/s 728 mmHg 76%
    13:00 +19°C° 0 mm 4 m/s 728 mmHg 75%
    14:00 +19°C° 0 mm 4 m/s 728 mmHg 73%
    15:00 +19°C° 0 mm 4 m/s 728 mmHg 72%
    16:00 +18°C° 0 mm 4 m/s 728 mmHg 75%
    17:00 +18°C° 0 mm 4 m/s 728 mmHg 78%
    18:00 +17°C° 0 mm 4 m/s 729 mmHg 81%
    19:00 +17°C° 0,1 mm 4 m/s 729 mmHg 81%
    20:00 +17°C° 0,1 mm 4 m/s 730 mmHg 80%
    21:00 +16°C° 0,1 mm 5 m/s 730 mmHg 80%
    22:00 +15°C° 0,1 mm 5 m/s 730 mmHg 79%
    23:00 +15°C° 0,1 mm 5 m/s 730 mmHg 79%
    Arată mai mult